Погода в Норваш-Шигалях

Россия / Чувашская Республика     55°01′55″N   47°27′31″E
темп.,
°C
ветер,
м/с
пор.,
м/с
влажн.,
%
обл.,
%
осадки,
мм/ч
давл.,
гПа
погр.,
м
20 июня, вс
вс2000:00+17з411905 0.0 1022194
03:00+16з48911 0.0 1023129
06:00+19зсз47815 0.0 1022186
09:00+24сз45645 0.0 1022562
12:00+28сз34515 0.0 10221418
15:00+29ссз33480 0.0 10211882
18:00+27ссз23690 0.0 1020167
21:00+21з22855 0.0 102122
21 июня, пн
пн2100:00+19з22880 0.0 102211
03:00+18зюз22900 0.0 102215
06:00+21зюз23825 0.0 1022141
09:00+26зюз34645 0.0 1022730
12:00+29зсз23515 0.0 10221650
15:00+29зсз33494 0.0 10211890
18:00+27з35670 0.0 1021177
21:00+22зсз22775 0.0 102216
22 июня, вт
вт2200:00+20з22834 0.0 102216
03:00+19з228641 0.0 102316
06:00+22з237941 0.0 1023134
09:00+27зсз226540 0.0 1022619
12:00+30ссв125329 0.1 10221720
15:00+30ююв3253100 0.1 10211681
18:00+22ссз118384 2.6 102224
21:00+22з117999 5.7 102211
23 июня, ср
ср2300:00+21з228378 0.0 102214
03:00+20з228842 0.1 102215
06:00+23зсз238410 0.0 1022123
09:00+27сз237042 0.3 1022482
12:00+29с22545 0.0 10221400
15:00+30в225054 0.0 10211347
18:00+27з2267100 0.0 102123
21:00+23зсз22720 0.0 102122
24 июня, чт
чт2400:00+21зсз22810 0.0 102114
03:00+21з34806 0.0 102176
06:00+23з35800 0.0 1021169
09:00+27зсз34633 0.0 1020638
12:00+30ссз45512 0.0 10201596
15:00+30с56573 0.0 10191207
18:00+29зсз136872 0.2 1019230
21:00+20зюз389184 1.0 1018130